Zurück zum Katalog

STARLINK-36566

AktivKommunikationSSO
NORAD 67551·PAYLOAD·🇺🇸 United States

Gestartet Jan 22, 2026 von Vandenberg Space Force Base

Loading…

Nächste Überflüge (nächste 24 Stunden)

TLE

AktuellSource: CelesTrak SupGP

Epoche: Sep 15, 2026, 03:27 UTC

1 67551C 26014V   26258.14423611  .00061616  00000+0  19143-2 0  2589
2 67551  97.2846 143.5259 0002007 102.0530 256.9504 15.33380744    11

Verfolge STARLINK-36566 in Echtzeit mit AllMySat

Download on the App Store